Weather History for Dallas Love, TX

Change the Weather History Date:

Tuesday, November 6, 2012

  Actual Average Record
Temperature  
Mean Temperature 59 °F -  
Max Temperature 72 °F 66 °F 80 °F (2005)
Min Temperature 46 °F 49 °F 39 °F (1998)
Degree Days  
Heating Degree Days 6    
Growing Degree Days 9 (Base 50)    
Moisture  
Dew Point 40 °F    
Average Humidity 55    
Maximum Humidity 77    
Minimum Humidity 29    
Precipitation  
Precipitation 0.00 in - - ()
Sea Level Pressure  
Sea Level Pressure 30.11 in    
Wind  
Wind Speed 2 mph (WSW)    
Max Wind Speed 8 mph    
Max Gust Speed -    
Visibility 10 miles    
Events      
Averages and records for this station are not official NWS values.
T = Trace of Precipitation, MM = Missing Value Source: NWS Daily Summary

Daily Weather History Graph

Daily Weather History Graph

Search for Another Location

Airport:

Trip Planner

Search our weather history database for the weather conditions in past years. The results will help you decide how hot, cold, wet, or windy it might be!

Date:

Astronomy

Nov. 06, 2012 Rise Set
Actual Time 6:50 AM CST 5:31 PM CST
Civil Twilight 6:24 AM CST 5:57 PM CST
Nautical Twilight 5:54 AM CST 6:26 PM CST
Astronomical Twilight 5:25 AM CST 6:55 PM CST
Moon No Moon Rise 12:45 PM CST (11/6)
Length of Visible Light 11h 33m
Length of Day
10h 41m
Waning Gibbous, 53% of the Moon is Illuminated
Nov 6
Waning Gibbous
Nov 6
Last Quarter
Nov 13
New
Nov 20
First Quarter
Nov 28
Full

Hourly Weather History & Observations

Time (CST) Temp. Dew Point Humidity Pressure Visibility Wind Dir Wind Speed Gust Speed Precip Events Conditions
12:53 AM 53.1 °F 37.0 °F 55% 30.10 in 10.0 mi Calm Calm - N/A   Clear
1:53 AM 52.0 °F 37.9 °F 59% 30.11 in 10.0 mi North 3.5 mph - N/A   Clear
2:53 AM 50.0 °F 37.9 °F 63% 30.11 in 10.0 mi NNE 4.6 mph - N/A   Partly Cloudy
3:53 AM 48.9 °F 39.0 °F 69% 30.10 in 10.0 mi Calm Calm - N/A   Clear
4:53 AM 48.0 °F 39.0 °F 71% 30.11 in 10.0 mi Calm Calm - N/A   Clear
5:53 AM 48.2 °F 39.2 °F 71% 30.13 in 10.0 mi Calm Calm - N/A   Partly Cloudy
6:53 AM 46.9 °F 37.9 °F 71% 30.14 in 10.0 mi Calm Calm - N/A   Partly Cloudy
7:53 AM 50.0 °F 39.0 °F 66% 30.15 in 10.0 mi Calm Calm - N/A   Partly Cloudy
8:53 AM 55.0 °F 39.0 °F 55% 30.16 in 10.0 mi Calm Calm - N/A   Partly Cloudy
9:53 AM 57.9 °F 39.0 °F 49% 30.17 in 10.0 mi Calm Calm - N/A   Partly Cloudy
10:53 AM 60.1 °F 39.0 °F 46% 30.16 in 10.0 mi SW 3.5 mph - N/A   Partly Cloudy
11:53 AM 63.0 °F 37.0 °F 38% 30.15 in 10.0 mi West 3.5 mph - N/A   Partly Cloudy
12:53 PM 66.0 °F 36.0 °F 33% 30.10 in 10.0 mi Calm Calm - N/A   Partly Cloudy
1:53 PM 68.0 °F 39.0 °F 35% 30.07 in 10.0 mi SSW 4.6 mph - N/A   Partly Cloudy
2:53 PM 71.1 °F 37.9 °F 30% 30.06 in 10.0 mi WSW 8.1 mph - N/A   Partly Cloudy
3:53 PM 72.0 °F 37.9 °F 29% 30.05 in 10.0 mi West 8.1 mph - N/A   Partly Cloudy
4:53 PM 71.1 °F 39.0 °F 31% 30.04 in 10.0 mi South 4.6 mph - N/A   Partly Cloudy
5:53 PM 66.9 °F 39.9 °F 37% 30.05 in 10.0 mi South 4.6 mph - N/A   Partly Cloudy
6:53 PM 60.1 °F 46.0 °F 60% 30.07 in 10.0 mi Calm Calm - N/A   Partly Cloudy
7:53 PM 59.0 °F 46.0 °F 62% 30.08 in 10.0 mi Calm Calm - N/A   Clear
8:53 PM 61.0 °F 44.1 °F 54% 30.09 in 10.0 mi Calm Calm - N/A   Clear
9:53 PM 55.0 °F 46.9 °F 74% 30.11 in 10.0 mi Calm Calm - N/A   Clear
10:53 PM 54.0 °F 46.9 °F 77% 30.11 in 10.0 mi Calm Calm - N/A   Clear
11:53 PM 53.1 °F 46.0 °F 77% 30.12 in 10.0 mi Calm Calm - N/A   Clear